{"data":{"norad_id":48980,"epoch":"2026-09-20T04:30:11.073024Z","epoch_age_seconds":48872,"freshness":"FRESH","line1":"1 48980U 21060P   26263.18762816 -.00000019  00000+0 -82713-4 0  9992","line2":"2 48980  87.9157 209.9093 0001762  71.2553 288.8769 13.16594298252127","mean_motion":13.16594298,"eccentricity":0.0001762,"inclination_deg":87.9157,"raan_deg":209.9093,"arg_perigee_deg":71.2553,"mean_anomaly_deg":288.8769,"bstar":-8.2713e-5,"rev_number":25212,"period_min":109.37310014083,"perigee_km":1196.4216373771,"apogee_km":1199.0913822499,"semimajor_km":7575.8935098135,"source":"CELESTRAK","updated_at":"2026-09-20T09:00:44.625568Z"}}